Flag for Poland Weather past 2 weeks in Gdynia, Poland

Now
36 °F

Sprinkles. Partly sunny.


Feels Like: 25 °F
Forecast: 35 / 40 °F
Wind: 18 mph from West

Location: Gdansk-Rebiechowo

Current Time: Mar 3, 2015 at 10:54:36 AM

Latest Report: Mar 3, 2015 at 10:30 AM


Visibility: N/A

Pressure: 29.71 "Hg

Humidity: 93%

Dew point: 34 °F

Location of GdyniaLocation

Historic Weather in Gdynia — Graph

°F

Gdynia temperature yesterday

Maximum temperature yesterday: 45 °F (at 1:00 PM)
Minimum temperature yesterday: 37 °F (at 3:30 AM)
Average temperature yesterday: 39 °F

Past Weeks' High & Low Weather Summary

 TemperatureHumidityPressure
High48 °F (Feb 21, 1:00 PM)100% (Feb 24, 12:30 AM)30.54 "Hg (Feb 24, 12:30 AM)
Low23 °F (Feb 17, 4:00 AM)43% (Feb 21, 1:00 PM)29.30 "Hg (Mar 2, 1:30 PM)
Average37 °F80%29.92 "Hg
* Reported Feb 16 9:00 AM — Mar 3 9:30 AM, Gdynia, Weather by CustomWeather, © 2015

Note: Actual official high and low records may vary slightly from our data, if they occured in-between our weather recording intervals... More about our weather records

Advertising

Gdynia weather history for previous 24 hours

 ConditionsComfort  
Time TempWeatherWind HumidityBarometerVisibility
9:30 AM
Tue, Mar 3
36 °FPartly sunny.15 mph93%29.68 "HgN/A
9:00 AM36 °FPartly sunny.15 mph93%29.65 "HgN/A
8:30 AM36 °FLight snow. Partly sunny.16 mph93%29.65 "HgN/A
8:00 AM36 °FPartly sunny.15 mph87%29.62 "HgN/A
7:30 AM36 °FPartly sunny.14 mph93%29.62 "HgN/A
7:00 AM36 °FLight rain. Partly sunny.15 mph93%29.59 "HgN/A
6:30 AM36 °FSprinkles. Passing clouds.15 mph93%29.59 "HgN/A
6:00 AM36 °FPassing clouds.16 mph93%29.59 "HgN/A
5:30 AM36 °FPassing clouds.16 mph93%29.56 "HgN/A
5:00 AM37 °FPassing clouds.16 mph87%29.56 "HgN/A
4:30 AM37 °FPassing clouds.17 mph87%29.53 "HgN/A
4:00 AM36 °FPassing clouds.15 mph93%29.53 "HgN/A
3:30 AM36 °FSprinkles. Passing clouds.15 mph93%29.53 "HgN/A
3:00 AM36 °FPassing clouds.15 mph93%29.50 "HgN/A
2:30 AM36 °FPassing clouds.16 mph93%29.50 "HgN/A
2:00 AM36 °FPassing clouds.15 mph93%29.50 "HgN/A
1:30 AM36 °FSprinkles. Passing clouds.12 mph93%29.50 "HgN/A
1:00 AM37 °FPassing clouds.15 mph87%29.47 "HgN/A
12:30 AM37 °FSprinkles. Partly cloudy.14 mph93%29.47 "HgN/A
12:00 AM37 °FPassing clouds.14 mph93%29.47 "HgN/A
11:30 PM
Mon, Mar 2
37 °FPassing clouds.15 mph93%29.47 "HgN/A
11:00 PM37 °FPassing clouds.12 mph87%29.45 "HgN/A
10:30 PM37 °FPassing clouds.12 mph93%29.45 "HgN/A
10:00 PM37 °FPassing clouds.12 mph93%29.45 "HgN/A
9:30 PM37 °FSprinkles. Partly cloudy.12 mph93%29.45 "HgN/A
9:00 PM37 °FSprinkles. Partly cloudy.12 mph93%29.45 "HgN/A
8:30 PM37 °FPassing clouds.13 mph93%29.42 "HgN/A
8:00 PM37 °FSprinkles. Passing clouds.14 mph93%29.42 "HgN/A
7:30 PM37 °FLight rain. Passing clouds.13 mph93%29.42 "HgN/A
7:00 PM37 °FPassing clouds.14 mph93%29.42 "HgN/A
6:30 PM37 °FPassing clouds.14 mph93%29.39 "HgN/A
6:00 PM37 °FLight rain. Passing clouds.15 mph93%29.39 "HgN/A
5:30 PM37 °FPassing clouds.12 mph93%29.39 "HgN/A
5:00 PM37 °FPartly sunny.14 mph93%29.36 "HgN/A
4:30 PM37 °FLight rain. Broken clouds.8 mph93%29.36 "HgN/A
4:00 PM37 °FLight rain. Broken clouds.10 mph93%29.33 "HgN/A
3:30 PM39 °FLight rain. Broken clouds.13 mph87%29.33 "HgN/A
3:00 PM39 °FLight rain. Partly sunny.12 mph87%29.33 "HgN/A
2:30 PM39 °FRain. Broken clouds.13 mph93%29.33 "Hg5 mi
2:00 PM45 °FLight rain. Partly sunny.6 mph76%29.30 "HgN/A
1:30 PM45 °FPartly sunny.7 mph76%29.30 "HgN/A
1:00 PM45 °FScattered clouds.8 mph76%29.33 "HgN/A
12:30 PM43 °FScattered clouds.8 mph81%29.33 "HgN/A
12:00 PM43 °FScattered clouds.9 mph81%29.33 "HgN/A
11:30 AM41 °FPartly sunny.7 mph81%29.36 "HgN/A
11:00 AM41 °FPassing clouds.9 mph81%29.39 "HgN/A
10:30 AM39 °FPassing clouds.6 mph93%29.39 "HgN/A
10:00 AM39 °FScattered clouds.8 mph87%29.39 "HgN/A
Weather by CustomWeather, © 2015

See weather overviewHow to use our weather pages